Time,TemperatureF,DewpointF,PressureIn,WindDirection,WindDirectionDegrees,WindSpeedMPH,WindSpeedGustMPH,Humidity,HourlyPrecipIn,Conditions,Clouds,dailyrainin,SoftwareType,DateUTC
2013-02-07 00:09:00,25.5,25.3,29.95,East,90,4.3,-999.0,99,-99.99,,,0.00,Acu-Link.com,2013-02-07 07:09:00,
2013-02-07 00:24:00,25.5,25.3,29.94,East,90,4.3,-999.0,99,-99.99,,,0.00,Acu-Link.com,2013-02-07 07:24:00,
2013-02-07 00:39:00,25.9,25.4,29.94,South,180,4.7,-999.0,98,-99.99,,,0.00,Acu-Link.com,2013-02-07 07:39:00,
2013-02-07 00:54:00,25.7,25.2,29.94,South,180,5.8,-999.0,98,-99.99,,,0.00,Acu-Link.com,2013-02-07 07:54:00,
2013-02-07 01:09:00,25.7,25.2,29.94,South,180,5.1,-999.0,98,-99.99,,,0.00,Acu-Link.com,2013-02-07 08:09:00,
2013-02-07 01:24:00,25.7,25.2,29.94,South,180,5.1,-999.0,98,-99.99,,,0.00,Acu-Link.com,2013-02-07 08:24:00,
2013-02-07 01:39:00,25.7,25.2,29.95,South,180,5.1,-999.0,98,-99.99,,,0.00,Acu-Link.com,2013-02-07 08:39:00,
2013-02-07 01:54:00,25.7,25.2,29.94,South,180,5.1,-999.0,98,-99.99,,,0.00,Acu-Link.com,2013-02-07 08:54:00,
2013-02-07 02:09:00,25.7,25.2,29.95,South,180,5.1,-999.0,98,-99.99,,,0.00,Acu-Link.com,2013-02-07 09:09:00,
2013-02-07 02:24:00,25.7,25.2,29.94,South,180,5.1,-999.0,98,-99.99,,,0.00,Acu-Link.com,2013-02-07 09:24:00,
2013-02-07 02:39:00,25.7,25.2,29.94,South,180,7.8,-999.0,98,-99.99,,,0.00,Acu-Link.com,2013-02-07 09:39:00,
2013-02-07 02:54:00,25.7,25.2,29.96,South,180,7.8,-999.0,98,-99.99,,,0.00,Acu-Link.com,2013-02-07 09:54:00,
2013-02-07 03:10:00,25.7,25.2,29.95,South,180,7.8,-999.0,98,-99.99,,,0.00,Acu-Link.com,2013-02-07 10:10:00,
2013-02-07 03:25:00,25.7,25.2,29.94,South,180,7.8,-999.0,98,-99.99,,,0.00,Acu-Link.com,2013-02-07 10:25:00,
2013-02-07 03:40:00,25.7,25.2,29.94,South,180,7.8,-999.0,98,-99.99,,,0.00,Acu-Link.com,2013-02-07 10:40:00,
2013-02-07 03:55:00,25.7,25.2,29.94,SSE,157,6.7,-999.0,98,-99.99,,,0.00,Acu-Link.com,2013-02-07 10:55:00,
2013-02-07 04:10:00,25.3,24.9,29.95,SSE,157,4.7,-999.0,98,-99.99,,,0.00,Acu-Link.com,2013-02-07 11:10:00,
2013-02-07 04:25:00,25.3,24.9,29.96,SSE,157,4.7,-999.0,98,-99.99,,,0.00,Acu-Link.com,2013-02-07 11:25:00,
2013-02-07 04:40:00,25.3,24.9,29.95,SSE,157,4.7,-999.0,98,-99.99,,,0.00,Acu-Link.com,2013-02-07 11:40:00,
2013-02-07 04:55:00,25.3,24.9,29.96,SSE,157,4.7,-999.0,98,-99.99,,,0.00,Acu-Link.com,2013-02-07 11:55:00,
2013-02-07 05:10:00,25.3,24.9,29.96,SSE,157,4.7,-999.0,98,-99.99,,,0.00,Acu-Link.com,2013-02-07 12:10:00,
2013-02-07 05:26:00,25.3,24.9,29.96,SSE,157,4.7,-999.0,98,-99.99,,,0.00,Acu-Link.com,2013-02-07 12:26:00,
2013-02-07 05:41:00,25.3,24.9,29.96,SSE,157,4.7,-999.0,98,-99.99,,,0.00,Acu-Link.com,2013-02-07 12:41:00,
2013-02-07 05:56:00,25.3,24.9,29.96,SSE,157,4.7,-999.0,98,-99.99,,,0.00,Acu-Link.com,2013-02-07 12:56:00,
2013-02-07 06:11:00,25.3,24.9,29.96,SSE,157,4.7,-999.0,98,-99.99,,,0.00,Acu-Link.com,2013-02-07 13:11:00,
2013-02-07 06:26:00,23.4,22.6,29.96,South,180,4.3,-999.0,97,-99.99,,,0.00,Acu-Link.com,2013-02-07 13:26:00,
2013-02-07 06:41:00,23.4,22.6,29.96,South,180,5.1,-999.0,97,-99.99,,,0.00,Acu-Link.com,2013-02-07 13:41:00,
2013-02-07 06:56:00,23.0,22.3,29.97,South,180,4.3,-999.0,97,-99.99,,,0.00,Acu-Link.com,2013-02-07 13:56:00,
2013-02-07 07:11:00,22.1,21.4,29.96,SW,225,5.1,-999.0,97,-99.99,,,0.00,Acu-Link.com,2013-02-07 14:11:00,
2013-02-07 07:26:00,21.7,21.0,29.97,SSW,202,5.8,-999.0,97,-99.99,,,0.00,Acu-Link.com,2013-02-07 14:26:00,
2013-02-07 07:41:00,21.7,21.0,29.97,WSW,247,5.8,-999.0,97,-99.99,,,0.00,Acu-Link.com,2013-02-07 14:41:00,
2013-02-07 07:56:00,21.7,21.0,29.98,WSW,247,5.8,-999.0,97,-99.99,,,0.00,Acu-Link.com,2013-02-07 14:56:00,
2013-02-07 08:11:00,21.7,21.0,29.98,WSW,247,5.8,-999.0,97,-99.99,,,0.00,Acu-Link.com,2013-02-07 15:11:00,
2013-02-07 08:27:00,21.7,21.0,29.99,WSW,247,5.8,-999.0,97,-99.99,,,0.00,Acu-Link.com,2013-02-07 15:27:00,
2013-02-07 08:42:00,21.7,21.0,29.99,WSW,247,5.8,-999.0,97,-99.99,,,0.00,Acu-Link.com,2013-02-07 15:42:00,
2013-02-07 08:57:00,21.7,21.0,29.99,WSW,247,5.8,-999.0,97,-99.99,,,0.00,Acu-Link.com,2013-02-07 15:57:00,
2013-02-07 17:46:00,27.5,26.5,29.98,East,90,4.7,-999.0,96,-99.99,,,0.00,Acu-Link.com,2013-02-08 00:46:00,
2013-02-07 18:01:00,27.5,26.8,29.98,SE,135,4.3,-999.0,97,-99.99,,,0.00,Acu-Link.com,2013-02-08 01:01:00,
2013-02-07 18:16:00,27.5,26.8,29.99,SSE,157,4.7,-999.0,97,-99.99,,,0.00,Acu-Link.com,2013-02-08 01:16:00,
2013-02-07 18:31:00,26.6,25.9,29.98,South,180,7.4,-999.0,97,-99.99,,,0.00,Acu-Link.com,2013-02-08 01:31:00,
2013-02-07 18:47:00,26.4,25.7,29.99,SSE,157,7.4,-999.0,97,-99.99,,,0.00,Acu-Link.com,2013-02-08 01:47:00,
2013-02-07 19:02:00,26.1,25.3,29.98,South,180,6.3,-999.0,97,-99.99,,,0.00,Acu-Link.com,2013-02-08 02:02:00,
2013-02-07 19:17:00,25.5,24.8,29.98,SSE,157,8.3,-999.0,97,-99.99,,,0.00,Acu-Link.com,2013-02-08 02:17:00,
2013-02-07 19:32:00,25.5,24.8,29.98,SSE,157,8.3,-999.0,97,-99.99,,,0.00,Acu-Link.com,2013-02-08 02:32:00,
2013-02-07 19:47:00,25.2,24.4,29.98,South,180,10.3,-999.0,97,-99.99,,,0.00,Acu-Link.com,2013-02-08 02:47:00,
2013-02-07 20:03:00,25.0,24.3,29.98,South,180,9.4,-999.0,97,-99.99,,,0.00,Acu-Link.com,2013-02-08 03:03:00,
2013-02-07 20:18:00,25.0,24.3,29.97,South,180,8.3,-999.0,97,-99.99,,,0.00,Acu-Link.com,2013-02-08 03:18:00,
2013-02-07 20:33:00,24.3,23.8,29.97,SSE,157,10.3,-999.0,98,-99.99,,,0.00,Acu-Link.com,2013-02-08 03:33:00,
2013-02-07 20:48:00,24.3,23.8,29.97,SE,135,11.9,-999.0,98,-99.99,,,0.00,Acu-Link.com,2013-02-08 03:48:00,
2013-02-07 21:03:00,25.0,24.7,29.97,South,180,14.1,-999.0,99,-99.99,,,0.00,Acu-Link.com,2013-02-08 04:03:00,
2013-02-07 21:19:00,25.7,25.5,29.97,SSW,202,13.4,-999.0,99,-99.99,,,0.00,Acu-Link.com,2013-02-08 04:19:00,
2013-02-07 21:34:00,25.9,25.6,29.97,South,180,16.1,-999.0,99,-99.99,,,0.00,Acu-Link.com,2013-02-08 04:34:00,
2013-02-07 21:49:00,25.9,25.6,29.97,South,180,14.5,-999.0,99,-99.99,,,0.00,Acu-Link.com,2013-02-08 04:49:00,
2013-02-07 22:04:00,26.1,25.8,29.96,South,180,16.1,-999.0,99,-99.99,,,0.00,Acu-Link.com,2013-02-08 05:04:00,
2013-02-07 22:19:00,26.1,25.8,29.96,South,180,16.1,-999.0,99,-99.99,,,0.00,Acu-Link.com,2013-02-08 05:19:00,
2013-02-07 22:34:00,26.1,25.8,29.96,South,180,16.1,-999.0,99,-99.99,,,0.00,Acu-Link.com,2013-02-08 05:34:00,
2013-02-07 22:49:00,26.1,25.8,29.96,South,180,16.1,-999.0,99,-99.99,,,0.00,Acu-Link.com,2013-02-08 05:49:00,
2013-02-07 23:04:00,26.1,25.8,29.95,South,180,16.1,-999.0,99,-99.99,,,0.00,Acu-Link.com,2013-02-08 06:04:00,
2013-02-07 23:19:00,26.1,25.8,29.95,South,180,16.1,-999.0,99,-99.99,,,0.00,Acu-Link.com,2013-02-08 06:19:00,
2013-02-07 23:34:00,26.1,25.8,29.95,South,180,16.1,-999.0,99,-99.99,,,0.00,Acu-Link.com,2013-02-08 06:34:00,
2013-02-07 23:50:00,26.1,25.8,29.95,South,180,16.1,-999.0,99,-99.99,,,0.00,Acu-Link.com,2013-02-08 06:50:00,